This is the latest recevied weather packets stored in our database for station/object 9A7DI-13. If no packets are shown the sender has not sent any weather packets the latest 10 day(s).
| Time | Temp. | Humidity | Pressure | Rain* | Wind** | Luminosity | Snow |
|---|---|---|---|---|---|---|---|
| 1788415004 | 18.33° C | 73% | 1029.3 hPa | - | - | - | - |
| 1788414404 | 17.22° C | 79% | 1029.3 hPa | - | - | - | - |
| 1788413804 | 16.67° C | 82% | 1029.2 hPa | - | - | - | - |
| 1788413204 | 15.56° C | 85% | 1029.1 hPa | - | - | - | - |
| 1788412604 | 15° C | 88% | 1029 hPa | - | - | - | - |
| 1788412004 | 13.89° C | 90% | 1028.9 hPa | - | - | - | - |
| 1788411404 | 12.78° C | 91% | 1028.8 hPa | - | - | - | - |
| 1788410804 | 12.78° C | 90% | 1028.6 hPa | - | - | - | - |
| 1788410204 | 12.78° C | 90% | 1028.5 hPa | - | - | - | - |
| 1788409604 | 12.78° C | 90% | 1028.3 hPa | - | - | - | - |
| 1788409004 | 12.78° C | 90% | 1028.1 hPa | - | - | - | - |
| 1788408404 | 12.78° C | 89% | 1028 hPa | - | - | - | - |
| 1788407804 | 12.78° C | 89% | 1027.9 hPa | - | - | - | - |
| 1788407204 | 13.33° C | 89% | 1027.8 hPa | - | - | - | - |
| 1788406604 | 13.33° C | 90% | 1027.8 hPa | - | - | - | - |
| 1788406004 | 13.33° C | 91% | 1027.7 hPa | - | - | - | - |
| 1788405404 | 13.33° C | 91% | 1027.6 hPa | - | - | - | - |
| 1788404804 | 13.33° C | 92% | 1027.6 hPa | - | - | - | - |
| 1788404204 | 13.33° C | 90% | 1027.6 hPa | - | - | - | - |
| 1788403604 | 13.89° C | 89% | 1027.7 hPa | - | - | - | - |
| 1788403004 | 13.89° C | 87% | 1027.6 hPa | - | - | - | - |
| 1788402404 | 13.89° C | 87% | 1027.6 hPa | - | - | - | - |
| 1788401804 | 14.44° C | 87% | 1027.6 hPa | - | - | - | - |
| 1788401204 | 14.44° C | 86% | 1027.5 hPa | - | - | - | - |
| 1788400604 | 14.44° C | 86% | 1027.5 hPa | - | - | - | - |
* Rain since midnight (hover to see other rain measurements)
** Current wind speed in m/s (hover to see current wind gust speed)